Вернуться в каталог

STARLINK-5065

АктивенСвязьVLEO
NORAD 55641·PAYLOAD·🇺🇸 United States

Запущен Feb 17, 2023 с Vandenberg Space Force Base

Loading…

Ближайшие Пролёты (ближайшие 24 часа)

TLE

СвежийSource: CelesTrak SupGP

Эпоха: Sep 15, 2026, 01:53 UTC

1 55641C 23021P   26258.07895833 -.00052131  00000+0 -43693-2 0  2583
2 55641  70.0009  67.0719 0002706 267.8364 202.1632 14.98353254    11

Отслеживайте STARLINK-5065 в реальном времени с AllMySat

Download on the App Store